COSMOS 2251 DEB, 34590

Orbit data source: Space-Track

COSMOS 2251 DEB, 34590 is space debris in LEO originally from a launch on Wed, 16 Jun 1993 UTC launched from the Plesetsk Missile And Space Complex (PKMTR). The debris from Iridium 33, an American commercial communications satellite, has been tracked extensively since its accidental collision with the defunct Russian satellite Cosmos 2251 in 2009. This event, occurring at high speed in low Earth orbit (LEO), generated thousands of pieces of space debris, significantly increasing the risk of further collisions. The Iridium 33 debris cloud has impacted space traffic management and orbital debris mitigation strategies, making it a subject of ongoing study in space situational awareness.

Loading next visibility...
Identifier
34590, 1993-036WC
Orbit
LEO
Country
Flag of CISCIS
Related business
Manufacturer
Unknown
Mission
Spacecraft
Bus & Motor
Unknown
Mass
Unknown
Launch date (UTC)
1993-06-16 (33 years ago)
Launch vehicle
Unknown
Launch site
Plesetsk Missile And Space Complex (PKMTR)
Object type
Payload
Rocket body
Debris
Shape & HBR
Unknown shape, 0.1 m
Radar Cross Section
Medium (>0.1 m² and <1 m²)

Expand to show TLE details & history
Last TLE update: 10 hours ago

TLE from 10 hours ago
0 COSMOS 2251 DEB
1 34590U 93036WC  26264.08552265  .00000175  00000-0  46169-4 0  9998
2 34590  74.0438 148.3054 0069801 207.0401 223.5755 14.55102942932277
Epoch: 2026-09-21T02:03Z
TLE epoch observation values (Epoch: 2026-09-21T02:03:09.156Z)
Latitude
64.77167°
Longitude
154.67444°
Altitude
755.855 km
Speed
7.464 km/s
True Right ascension
12h 21m 43s
True Declination
64° 38' 20"
Sunlit
Object was in daylight at epoch
Visualization orbit readout
Latitude
Unknown
Longitude
Unknown
Altitude
Unknown
Speed
Unknown
Apparent Right ascension
Unknown
Apparent Declination
Unknown
Sunlit
N/A
Visualization observer readout
Local Sidereal Time
04:58:16
Azimuth
Unknown
Elevation
Unknown
Doppler factor
Unknown
Orbital elements
Apogee altitude
756.085 km
Perigee altitude
657.18 km
Semi-major axis
7,084.77 km
Eccentricity
0.00698
Inclination
74.0438°
RAAN
148.3054°
Arg. of periapsis
207.0401°
True anomaly
223.02762°
Mean anomaly
223.5755°
Eccentric anomaly
223.30121°
Mean motion
3.63961 °/min
Orbital period
98.91 mins
BSTAR
0.000046169

Documentation

Showing up to 5 results
|